weather.gov     
National Weather Service

Regional Weather Roundup
NWS Homepage
This page is being discontinued on March 12, 2014.
The same data is available at this site. Please update your bookmarks.
Thank you, and we apologize for the inconvenience.
Please send an email to SR-SRH.Webmaster@noaa.gov with any concerns.


Current Version
Previous Version:    01  02  03  04  05  06  07  08  09  10  11  12  13  14  15  16  17  18  19  20  21  22  23  24  25  26  27  28  29  30  
   31  32  33  34  35  36  37  38  39  40  41  42  43  44  45  46  47  48  49  50  51  52  53  
[Printable]
507
ASUS45 KABQ 222110
RWRNM
WEATHER ROUNDUP FOR NEW MEXICO
NATIONAL WEATHER SERVICE ALBUQUERQUE NM
300 PM MDT FRI AUG 22 2014

NOTE: "FAIR" MEANS FEW OR NO CLOUDS BELOW 12,000 FEET AGL WITH NO
       SIGNIFICANT WEATHER OR OBSTRUCTIONS TO VISION.

      THIS PRODUCT IS RELEASED AS TWO VERSIONS.  ONE VERSION NEAR
      THE TOP OF THE HOUR CONTAINING PRELIMINARY DATA FROM ALBUQUERQUE
      AND OTHER STATIONS.  A FINAL VERSION WITH ADDITIONAL DATA IS
      ISSUED ABOUT 10 MINUTES AFTER THE HOUR.

NMZ501-503-504-510>518-222200-
NORTHWEST PLATEAU/NORTHCENTRAL MOUNTAINS

CITY           SKY/WX    TMP DP  RH WIND       PRES   REMARKS
FARMINGTON     CLOUDY    67  52  58 W16G22    30.13S
LOS ALAMOS     CLOUDY    56  53  89 CALM      30.29F
SANTA FE       CLOUDY    63  54  72 N8        30.24R
TAOS           CLOUDY    57  50  77 NE3       30.28F
ANGEL FIRE     MOCLDY    58  50  73 SW5       30.33F

$$
NMZ402-403-502-505>509-222200-
WESTCENTRAL MOUNTAINS/SOUTHWEST MOUNTAINS

CITY           SKY/WX    TMP DP  RH WIND       PRES   REMARKS
GALLUP         MOSUNNY   75  41  29 S12G21    30.18F
SILVER CITY    PTSUNNY   79  48  34 W12G17    30.17F

$$
NMZ407-409-411-412-222200-
SOUTHERN DESERTS

CITY           SKY/WX    TMP DP  RH WIND       PRES   REMARKS
LORDSBURG      FAIR      84  52  32 W8G17     30.08F
DEMING         MOSUNNY   82  55  39 CALM      30.09F
LAS CRUCES     CLOUDY    75  62  62 SE6       30.14F
HOLLOMAN AFB   CLOUDY    75  61  60 S5        30.11F
ALAMOGORDO     CLOUDY    73  63  68 SW7       30.14S
T OR C         MOSUNNY   79  58  48 SE14      30.11F

$$
NMZ519>523-222200-
CENTRAL VALLEYS/CENTRAL HIGHLANDS

CITY           SKY/WX    TMP DP  RH WIND       PRES   REMARKS
ALBUQUERQUE    CLOUDY    64  58  80 NE6       30.20F
DOUBLE EAGLE   CLOUDY    63  57  82 N3        30.22F
MORIARTY ARPT  MOCLDY    68  53  57 CALM      30.24F
CLINES CORNERS CLOUDY    62  53  72 NW12      30.25F
BELEN          MOCLDY    68  59  73 E6        30.18F
SOCORRO        FAIR      74  58  56 NE6       30.15F

$$
NMZ524>526-539-540-222200-
SOUTHCENTRAL MOUNTAINS

CITY           SKY/WX    TMP DP  RH WIND       PRES   REMARKS
RUIDOSO        CLOUDY    66  55  68 NW7       30.27F

$$
NMZ527>531-222200-
NORTHEAST HIGHLANDS/NORTHEAST PLAINS

CITY           SKY/WX    TMP DP  RH WIND       PRES   REMARKS
LAS VEGAS      PTSUNNY   72  47  40 S20       30.21F
RATON          CLOUDY    65  58  78 N10       30.17F
CLAYTON        MOSUNNY   92  45  19 S21G29    30.03F

$$
NMZ532>537-222200-
EASTCENTRAL PLAINS

CITY           SKY/WX    TMP DP  RH WIND       PRES   REMARKS
TUCUMCARI      SUNNY     95  50  21 S15G30    30.00F
CANNON AFB     MOSUNNY   92  54  27 SW18G25   30.05F
CLOVIS AIRPORT   N/A     93  54  26 SW13G31   30.06F

$$
NMZ028-029-538-222200-
SOUTHEAST PLAINS

CITY           SKY/WX    TMP DP  RH WIND       PRES   REMARKS
ROSWELL        MOSUNNY   93  55  27 S18G26    29.99F
ARTESIA        PTSUNNY   91  54  27 SW15      30.00F
CARLSBAD       MOSUNNY   96  53  23 SW15G25   29.97F
HOBBS          PTSUNNY   91  55  29 S12       30.04F


$$




U.S. Dept. of Commerce
NOAA National Weather Service
1325 East West Highway
Silver Spring, MD 20910
E-mail: w-nws.webmaster@noaa.gov
Page last modified: May 16, 2007
NATIONAL WEATHER SERVICE: for Safety, for Work, for Fun - FOR LIFE